• In Deutschland
  • Länderverzeichnis
  • Für 7 Tage
  • Wassertemperatur
  • Satellitenkarten
  • Wetterkarte
  • Widgets
  • user-avatar
    Anmelden

    Stündliche Wetter Orbassano

    Heute, 22 Juni, Freitag

    Zeit Temperatur Niederschläge Wind Luftdruck Luftfeuchtigkeit
    00:00 +23°C° 0,4 mm 2 m/S 737 mmHg 76%
    01:00 +23°C° 0 mm 2 m/S 736 mmHg 78%
    02:00 +21°C° 0,3 mm 2 m/S 736 mmHg 78%
    03:00 +21°C° 0,3 mm 2 m/S 736 mmHg 78%
    04:00 +21°C° 0,3 mm 2 m/S 736 mmHg 77%
    05:00 +23°C° 0,1 mm 2 m/S 736 mmHg 76%
    06:00 +23°C° 0,1 mm 2 m/S 736 mmHg 74%
    07:00 +25°C° 0 mm 2 m/S 736 mmHg 71%
    08:00 +26°C° 0,2 mm 2 m/S 736 mmHg 66%
    09:00 +27°C° 0,2 mm 2 m/S 736 mmHg 61%
    10:00 +28°C° 0,2 mm 2 m/S 736 mmHg 55%
    11:00 +29°C° 0 mm 2 m/S 736 mmHg 52%
    12:00 +30°C° 0 mm 2 m/S 736 mmHg 49%
    13:00 +31°C° 0 mm 2 m/S 737 mmHg 46%
    14:00 +30°C° 0,1 mm 2 m/S 736 mmHg 47%
    15:00 +30°C° 0,1 mm 3 m/S 736 mmHg 48%
    16:00 +30°C° 0,1 mm 3 m/S 736 mmHg 49%
    17:00 +28°C° 0,7 mm 3 m/S 737 mmHg 58%
    18:00 +26°C° 0,7 mm 3 m/S 737 mmHg 67%
    19:00 +25°C° 0,7 mm 3 m/S 737 mmHg 76%
    20:00 +22°C° 0,4 mm 3 m/S 738 mmHg 81%
    21:00 +20°C° 0,4 mm 2 m/S 739 mmHg 85%
    22:00 +19°C° 0,4 mm 2 m/S 739 mmHg 90%
    23:00 +18°C° 0,1 mm 2 m/S 740 mmHg 90%

    Morgen, 23 Juni, Samstag

    Zeit Temperatur Niederschläge Wind Luftdruck Luftfeuchtigkeit
    00:00 +18°C° 0,1 mm 2 m/S 740 mmHg 90%
    01:00 +19°C° 0,1 mm 1 m/S 740 mmHg 90%
    02:00 +19°C° 0,1 mm 1 m/S 740 mmHg 90%
    03:00 +18°C° 0,1 mm 1 m/S 740 mmHg 91%
    04:00 +18°C° 0,1 mm 1 m/S 740 mmHg 91%
    05:00 +18°C° 0,1 mm 1 m/S 740 mmHg 89%
    06:00 +19°C° 0,1 mm 1 m/S 741 mmHg 87%
    07:00 +19°C° 0,1 mm 1 m/S 741 mmHg 85%
    08:00 +20°C° 0 mm 1 m/S 741 mmHg 79%
    09:00 +20°C° 0 mm 2 m/S 741 mmHg 72%
    10:00 +23°C° 0 mm 2 m/S 741 mmHg 66%
    11:00 +24°C° 0 mm 2 m/S 740 mmHg 62%
    12:00 +25°C° 0 mm 2 m/S 740 mmHg 59%
    13:00 +26°C° 0 mm 2 m/S 740 mmHg 55%
    14:00 +26°C° 0 mm 2 m/S 740 mmHg 56%
    15:00 +26°C° 0 mm 2 m/S 739 mmHg 56%
    16:00 +26°C° 0 mm 2 m/S 739 mmHg 56%
    17:00 +25°C° 0 mm 2 m/S 739 mmHg 60%
    18:00 +25°C° 0 mm 1 m/S 739 mmHg 65%
    19:00 +24°C° 0 mm 1 m/S 739 mmHg 69%
    20:00 +23°C° 0 mm 1 m/S 739 mmHg 72%
    21:00 +21°C° 0 mm 1 m/S 739 mmHg 76%
    22:00 +20°C° 0 mm 1 m/S 740 mmHg 80%
    23:00 +20°C° 0 mm 1 m/S 740 mmHg 80%

    übermorgen, 24 Juni, Sonntag

    Zeit Temperatur Niederschläge Wind Luftdruck Luftfeuchtigkeit
    00:00 +19°C° 0 mm 1 m/S 739 mmHg 80%
    01:00 +17°C° 0 mm 0 m/S 739 mmHg 80%
    02:00 +17°C° 0,1 mm 0 m/S 739 mmHg 81%
    03:00 +17°C° 0,1 mm 0 m/S 739 mmHg 82%
    04:00 +17°C° 0,1 mm 0 m/S 739 mmHg 83%
    05:00 +19°C° 0,3 mm 1 m/S 739 mmHg 82%
    06:00 +20°C° 0,3 mm 1 m/S 739 mmHg 81%
    07:00 +20°C° 0,3 mm 1 m/S 739 mmHg 80%
    08:00 +21°C° 0,3 mm 1 m/S 739 mmHg 78%
    09:00 +20°C° 0,3 mm 2 m/S 739 mmHg 75%
    10:00 +21°C° 0,3 mm 2 m/S 739 mmHg 73%
    11:00 +23°C° 0,3 mm 2 m/S 739 mmHg 71%
    12:00 +23°C° 0,3 mm 2 m/S 739 mmHg 69%
    13:00 +24°C° 0,3 mm 2 m/S 738 mmHg 67%
    14:00 +24°C° 0,5 mm 2 m/S 738 mmHg 67%
    15:00 +24°C° 0,5 mm 2 m/S 738 mmHg 68%
    16:00 +24°C° 0,5 mm 1 m/S 738 mmHg 68%
    17:00 +24°C° 0,6 mm 1 m/S 738 mmHg 71%
    18:00 +23°C° 0,6 mm 1 m/S 738 mmHg 74%
    19:00 +23°C° 0,6 mm 1 m/S 738 mmHg 76%
    20:00 +21°C° 0,3 mm 1 m/S 738 mmHg 80%
    21:00 +20°C° 0,3 mm 1 m/S 739 mmHg 84%
    22:00 +19°C° 0,3 mm 1 m/S 739 mmHg 88%
    23:00 +18°C° 0,2 mm 1 m/S 739 mmHg 88%

    25 Juni, Montag

    Zeit Temperatur Niederschläge Wind Luftdruck Luftfeuchtigkeit
    00:00 +18°C° 0,2 mm 1 m/S 739 mmHg 88%
    01:00 +16°C° 0,2 mm 1 m/S 739 mmHg 88%
    02:00 +16°C° 0 mm 1 m/S 739 mmHg 88%
    03:00 +16°C° 0 mm 1 m/S 739 mmHg 88%
    04:00 +16°C° 0 mm 1 m/S 739 mmHg 88%
    05:00 +18°C° 0 mm 1 m/S 739 mmHg 86%
    06:00 +19°C° 0 mm 1 m/S 739 mmHg 84%
    07:00 +20°C° 0 mm 1 m/S 739 mmHg 82%
    08:00 +21°C° 0 mm 1 m/S 739 mmHg 77%
    09:00 +22°C° 0 mm 1 m/S 739 mmHg 71%
    10:00 +24°C° 0 mm 1 m/S 739 mmHg 66%
    11:00 +24°C° 0 mm 2 m/S 739 mmHg 64%
    12:00 +25°C° 0 mm 2 m/S 739 mmHg 62%
    13:00 +26°C° 0 mm 2 m/S 739 mmHg 60%
    14:00 +26°C° 0,1 mm 2 m/S 739 mmHg 61%
    15:00 +26°C° 0,1 mm 2 m/S 739 mmHg 62%
    16:00 +26°C° 0,1 mm 2 m/S 739 mmHg 63%
    17:00 +25°C° 0,1 mm 1 m/S 739 mmHg 66%
    18:00 +25°C° 0,1 mm 1 m/S 739 mmHg 70%
    19:00 +24°C° 0,1 mm 1 m/S 739 mmHg 73%
    20:00 +23°C° 0 mm 1 m/S 740 mmHg 77%
    21:00 +22°C° 0 mm 1 m/S 740 mmHg 81%
    22:00 +21°C° 0 mm 1 m/S 740 mmHg 85%
    23:00 +21°C° 0 mm 1 m/S 741 mmHg 85%

    26 Juni, Dienstag

    Zeit Temperatur Niederschläge Wind Luftdruck Luftfeuchtigkeit
    00:00 +20°C° 0 mm 1 m/S 741 mmHg 86%
    01:00 +20°C° 0 mm 1 m/S 741 mmHg 86%
    02:00 +20°C° 0 mm 1 m/S 740 mmHg 87%
    03:00 +20°C° 0 mm 1 m/S 740 mmHg 87%
    04:00 +19°C° 0 mm 1 m/S 740 mmHg 87%
    05:00 +20°C° 0 mm 1 m/S 740 mmHg 85%
    06:00 +21°C° 0 mm 1 m/S 740 mmHg 84%
    07:00 +21°C° 0 mm 1 m/S 740 mmHg 82%
    08:00 +22°C° 0 mm 1 m/S 740 mmHg 78%
    09:00 +23°C° 0 mm 1 m/S 740 mmHg 74%
    10:00 +24°C° 0 mm 2 m/S 740 mmHg 71%
    11:00 +25°C° 0 mm 2 m/S 740 mmHg 67%
    12:00 +26°C° 0 mm 2 m/S 740 mmHg 63%
    13:00 +27°C° 0 mm 2 m/S 740 mmHg 60%
    14:00 +27°C° 0 mm 2 m/S 740 mmHg 60%
    15:00 +27°C° 0 mm 2 m/S 740 mmHg 60%
    16:00 +27°C° 0 mm 2 m/S 740 mmHg 61%
    17:00 +27°C° 0 mm 2 m/S 740 mmHg 65%
    18:00 +26°C° 0 mm 1 m/S 740 mmHg 69%
    19:00 +25°C° 0 mm 1 m/S 740 mmHg 73%
    20:00 +24°C° 0 mm 1 m/S 740 mmHg 76%
    21:00 +23°C° 0 mm 1 m/S 740 mmHg 79%
    22:00 +22°C° 0 mm 1 m/S 741 mmHg 83%
    23:00 +21°C° 0 mm 1 m/S 741 mmHg 82%

    27 Juni, Mittwoch

    Zeit Temperatur Niederschläge Wind Luftdruck Luftfeuchtigkeit
    00:00 +21°C° 0 mm 1 m/S 741 mmHg 81%
    01:00 +21°C° 0 mm 1 m/S 741 mmHg 81%
    02:00 +20°C° 0 mm 1 m/S 740 mmHg 81%
    03:00 +20°C° 0 mm 1 m/S 740 mmHg 81%
    04:00 +20°C° 0 mm 1 m/S 740 mmHg 80%
    05:00 +21°C° 0 mm 1 m/S 740 mmHg 78%
    06:00 +22°C° 0 mm 1 m/S 740 mmHg 75%
    07:00 +21°C° 0 mm 0 m/S 740 mmHg 73%
    08:00 +24°C° 0 mm 1 m/S 740 mmHg 68%
    09:00 +26°C° 0 mm 1 m/S 740 mmHg 64%
    10:00 +27°C° 0 mm 2 m/S 740 mmHg 59%
    11:00 +27°C° 0 mm 2 m/S 740 mmHg 57%
    12:00 +28°C° 0 mm 2 m/S 740 mmHg 56%
    13:00 +29°C° 0 mm 2 m/S 739 mmHg 55%
    14:00 +29°C° 0,1 mm 2 m/S 739 mmHg 55%
    15:00 +29°C° 0,1 mm 2 m/S 739 mmHg 56%
    16:00 +29°C° 0,1 mm 2 m/S 739 mmHg 57%
    17:00 +28°C° 0,1 mm 2 m/S 739 mmHg 61%
    18:00 +27°C° 0,1 mm 1 m/S 739 mmHg 66%
    19:00 +27°C° 0,1 mm 1 m/S 739 mmHg 71%
    20:00 +25°C° 0 mm 1 m/S 739 mmHg 74%
    21:00 +23°C° 0 mm 1 m/S 740 mmHg 78%
    22:00 +22°C° 0 mm 1 m/S 740 mmHg 81%
    23:00 +22°C° 0 mm 1 m/S 740 mmHg 81%
    Mehr zeigen